Cosmos 1340 Rocket - Orbit

View from above orbital plane
View from above orbital plane
View from above satellite
View from above satellite

Ground track
Ground track

The orbit data is extracted from the following two-line orbital elements,

1 13068U 82013B   13143.17053064  .00002110  00000-0  15572-3 0  1371
2 13068 081.2046 114.4915 0024137 167.7522 192.4292 15.02649053699944
Epoch (UTC): 23 May 2013 04:05:33
Eccentricity: 0.0024137
inclination: 81.2046°
perigee height: 542 km
apogee height: 575 km
right ascension of ascending node: 114.4915°
argument of perigee: 167.7522°
revolutions per day: 15.02649053
mean anomaly at epoch: 192.4292°
orbit number at epoch: 69994

The dashed part of the orbit path shows where the satellite is in the earth's shadow,  

Developed and maintained by Chris Peat, Heavens-Above GmbH. Please read the updated FAQ before sending e-mail. Imprint. DLR